Simultaneous Nadir Overpasses (SNOs) Predictions

Prediction of SNOs between AQUA and NOAA-19 Satellite Orbit:

Table of predicted SNOs for the next 14.0 days since TLE Epoch: 6/27/2014
Index Date (AQUA) Time (AQUA) Lat,Lon (AQUA) SZA (AQUA ) Date (NOAA-19) Time (NOAA-19) Lat,Lon (NOAA-19) SZA (NOAA-19 ) Distance(km) Time Diff (sec)
1 06/28/2014 05:26:37 -77.04, -96.25 125.79 06/28/2014 05:25:26 -77.05, -96.27 125.76 0.66 71
2 06/28/2014 06:15:47 76.22, 74.25 53.24 06/28/2014 06:16:10 76.20, 74.34 53.22 2.68 23
3 06/30/2014 11:00:13 76.56, 2.02 53.78 06/30/2014 11:00:08 76.56, 2.07 53.77 1.39 5
4 07/02/2014 15:44:38 76.87, -70.12 54.29 07/02/2014 15:44:05 76.87, -70.12 54.30 0.15 33
5 07/02/2014 16:33:47 -76.06, 100.23 126.66 07/02/2014 16:34:48 -76.06, 100.24 126.67 0.37 61
6 07/04/20
